Time,TemperatureF,DewpointF,PressureIn,WindDirection,WindDirectionDegrees,WindSpeedMPH,WindSpeedGustMPH,Humidity,HourlyPrecipIn,Conditions,Clouds,dailyrainin,SoftwareType,DateUTC
2013-03-12 00:03:00,50.2,46.4,29.91,SSW,194,2.9,5.6,87,0.00,,,0.00,WSDL version 420,2013-03-12 07:03:00,
2013-03-12 00:08:00,50.2,46.4,29.91,South,188,1.4,5.6,87,0.00,,,0.00,WSDL version 420,2013-03-12 07:08:00,
2013-03-12 00:13:00,50.0,46.2,29.91,South,175,2.3,4.9,87,0.00,,,0.00,WSDL version 420,2013-03-12 07:13:00,
2013-03-12 00:18:00,50.0,46.2,29.91,SW,214,2.8,6.3,87,0.00,,,0.00,WSDL version 420,2013-03-12 07:18:00,
2013-03-12 00:23:00,50.0,46.2,29.91,SSW,195,2.3,6.3,87,0.00,,,0.00,WSDL version 420,2013-03-12 07:23:00,
2013-03-12 00:28:00,49.8,46.3,29.91,SSW,200,2.7,4.7,88,0.00,,,0.00,WSDL version 420,2013-03-12 07:28:00,
2013-03-12 00:33:00,49.8,46.7,29.91,SSW,205,3.7,6.3,90,0.00,,,0.00,WSDL version 420,2013-03-12 07:33:00,
2013-03-12 00:38:00,49.8,47.4,29.91,SSW,200,3.4,6.3,92,0.00,,,0.00,WSDL version 420,2013-03-12 07:38:00,
2013-03-12 00:43:00,49.6,47.7,29.91,SW,219,3.6,6.3,93,0.00,,,0.00,WSDL version 420,2013-03-12 07:43:00,
2013-03-12 00:48:00,49.6,47.8,29.91,SW,230,4.3,6.3,93,0.00,,,0.00,WSDL version 420,2013-03-12 07:48:00,
2013-03-12 00:53:00,49.6,47.9,29.91,SSW,211,4.1,6.0,94,0.00,,,0.00,WSDL version 420,2013-03-12 07:53:00,
2013-03-12 00:58:00,49.6,48.2,29.91,SSW,210,4.5,7.8,96,0.00,,,0.00,WSDL version 420,2013-03-12 07:58:00,
2013-03-12 01:03:00,49.6,48.4,29.91,SW,233,3.8,7.8,96,0.00,,,0.00,WSDL version 420,2013-03-12 08:03:00,
2013-03-12 01:08:00,49.6,48.3,29.91,SSW,213,3.5,6.5,94,0.00,,,0.00,WSDL version 420,2013-03-12 08:08:00,
2013-03-12 01:13:00,49.5,48.0,29.91,SW,215,2.6,5.6,94,0.00,,,0.00,WSDL version 420,2013-03-12 08:13:00,
2013-03-12 01:18:00,49.5,47.9,29.91,WSW,239,2.5,4.3,94,0.00,,,0.00,WSDL version 420,2013-03-12 08:18:00,
2013-03-12 01:23:00,49.5,47.9,29.91,SW,223,2.6,4.9,94,0.00,,,0.00,WSDL version 420,2013-03-12 08:23:00,
2013-03-12 01:28:00,49.4,47.7,29.91,SW,215,1.4,4.9,93,0.00,,,0.00,WSDL version 420,2013-03-12 08:28:00,
2013-03-12 01:33:00,49.3,47.4,29.91,SSW,213,2.3,6.3,93,0.00,,,0.00,WSDL version 420,2013-03-12 08:33:00,
2013-03-12 01:38:00,49.3,47.4,29.91,South,178,1.4,6.3,93,0.00,,,0.00,WSDL version 420,2013-03-12 08:38:00,
2013-03-12 01:43:00,49.3,47.4,29.91,South,188,2.6,5.6,93,0.00,,,0.00,WSDL version 420,2013-03-12 08:43:00,
2013-03-12 01:48:00,49.2,47.3,29.91,South,180,0.2,5.6,93,0.00,,,0.00,WSDL version 420,2013-03-12 08:48:00,
2013-03-12 01:53:00,49.1,47.2,29.91,South,188,1.3,3.4,93,0.00,,,0.00,WSDL version 420,2013-03-12 08:53:00,
2013-03-12 01:58:00,49.1,47.0,29.91,South,170,1.6,3.4,93,0.00,,,0.00,WSDL version 420,2013-03-12 08:58:00,
2013-03-12 02:03:00,49.1,47.3,29.91,SSE,158,1.3,3.1,93,0.00,,,0.00,WSDL version 420,2013-03-12 09:03:00,
2013-03-12 02:08:00,49.0,47.2,29.91,South,190,0.8,2.7,93,0.00,,,0.00,WSDL version 420,2013-03-12 09:08:00,
2013-03-12 02:13:00,48.9,47.0,29.91,South,180,0.0,2.5,93,0.00,,,0.00,WSDL version 420,2013-03-12 09:13:00,
2013-03-12 02:18:00,48.9,46.9,29.91,South,183,0.5,2.5,93,0.00,,,0.00,WSDL version 420,2013-03-12 09:18:00,
2013-03-12 02:23:00,48.8,46.6,29.91,South,178,1.2,2.5,92,0.00,,,0.00,WSDL version 420,2013-03-12 09:23:00,
2013-03-12 02:28:00,48.7,46.6,29.91,South,188,0.6,2.5,92,0.00,,,0.00,WSDL version 420,2013-03-12 09:28:00,
2013-03-12 02:33:00,48.7,46.6,29.91,SSW,200,0.0,2.2,92,0.00,,,0.00,WSDL version 420,2013-03-12 09:33:00,
2013-03-12 02:38:00,48.7,46.6,29.91,SSW,203,0.0,0.0,92,0.00,,,0.00,WSDL version 420,2013-03-12 09:38:00,
2013-03-12 02:43:00,48.6,46.4,29.91,SSW,203,0.4,2.5,92,0.00,,,0.00,WSDL version 420,2013-03-12 09:43:00,
2013-03-12 02:48:00,48.4,46.0,29.91,SSW,195,1.7,3.1,91,0.00,,,0.00,WSDL version 420,2013-03-12 09:48:00,
2013-03-12 02:53:00,48.2,45.8,29.91,SSW,203,0.0,3.1,91,0.00,,,0.00,WSDL version 420,2013-03-12 09:53:00,
2013-03-12 02:58:00,48.2,45.4,29.91,SSW,200,0.4,3.6,90,0.00,,,0.00,WSDL version 420,2013-03-12 09:58:00,
2013-03-12 03:03:00,48.2,45.7,29.91,SSW,200,1.8,3.6,91,0.00,,,0.00,WSDL version 420,2013-03-12 10:03:00,
2013-03-12 03:08:00,48.4,46.3,29.91,SSW,205,2.0,3.8,92,0.00,,,0.00,WSDL version 420,2013-03-12 10:08:00,
2013-03-12 03:13:00,48.6,46.6,29.91,South,180,3.3,4.3,93,0.00,,,0.00,WSDL version 420,2013-03-12 10:13:00,
2013-03-12 03:18:00,48.7,47.0,29.91,West,270,1.8,6.5,94,0.00,,,0.00,WSDL version 420,2013-03-12 10:18:00,
2013-03-12 03:23:00,48.7,47.2,29.91,SSW,205,2.6,6.5,94,0.00,,,0.00,WSDL version 420,2013-03-12 10:23:00,
2013-03-12 03:28:00,48.9,47.7,29.91,SW,218,1.8,6.0,96,0.00,,,0.00,WSDL version 420,2013-03-12 10:28:00,
2013-03-12 03:33:00,48.8,47.6,29.91,SSW,198,1.2,6.0,96,0.00,,,0.00,WSDL version 420,2013-03-12 10:33:00,
2013-03-12 03:38:00,48.7,47.5,29.91,SSW,194,1.7,4.3,96,0.00,,,0.00,WSDL version 420,2013-03-12 10:38:00,
2013-03-12 03:43:00,48.7,47.5,29.91,SSW,203,0.7,5.6,96,0.00,,,0.00,WSDL version 420,2013-03-12 10:43:00,
2013-03-12 03:48:00,48.7,47.5,29.91,SSW,211,2.8,5.6,96,0.00,,,0.00,WSDL version 420,2013-03-12 10:48:00,
2013-03-12 03:58:00,48.7,47.5,29.91,SW,228,1.6,3.6,96,0.00,,,0.00,WSDL version 420,2013-03-12 10:58:00,
2013-03-12 04:03:00,48.7,47.5,29.91,SSW,205,2.7,5.4,96,0.00,,,0.00,WSDL version 420,2013-03-12 11:03:00,
2013-03-12 04:08:00,48.7,47.7,29.91,South,183,0.8,5.4,97,0.00,,,0.00,WSDL version 420,2013-03-12 11:08:00,
2013-03-12 04:13:00,48.7,47.8,29.91,SSW,208,1.9,4.0,97,0.00,,,0.00,WSDL version 420,2013-03-12 11:13:00,
2013-03-12 04:18:00,48.7,47.8,29.91,SSW,211,2.6,4.0,97,0.00,,,0.00,WSDL version 420,2013-03-12 11:18:00,
2013-03-12 04:23:00,48.7,47.8,29.91,South,186,2.0,3.6,97,0.00,,,0.00,WSDL version 420,2013-03-12 11:23:00,
2013-03-12 04:33:00,48.7,47.8,29.91,South,185,0.5,3.6,97,0.00,,,0.00,WSDL version 420,2013-03-12 11:33:00,
2013-03-12 04:38:00,48.7,47.8,29.91,ESE,118,0.7,2.9,97,0.00,,,0.00,WSDL version 420,2013-03-12 11:38:00,
2013-03-12 04:43:00,48.3,47.3,29.91,East,90,3.4,4.3,96,0.00,,,0.00,WSDL version 420,2013-03-12 11:43:00,
2013-03-12 04:48:00,47.8,46.3,29.91,ESE,110,2.8,4.3,94,0.00,,,0.00,WSDL version 420,2013-03-12 11:48:00,
2013-03-12 04:53:00,47.3,45.3,29.91,East,90,2.2,3.8,92,0.00,,,0.00,WSDL version 420,2013-03-12 11:53:00,
2013-03-12 05:03:00,46.6,43.9,29.91,ESE,108,0.0,2.7,90,0.00,,,0.00,WSDL version 420,2013-03-12 12:03:00,
2013-03-12 05:08:00,46.3,43.7,29.91,ESE,108,2.9,3.6,91,0.00,,,0.00,WSDL version 420,2013-03-12 12:08:00,
2013-03-12 05:13:00,46.0,43.3,29.91,ESE,113,2.7,3.6,90,0.00,,,0.00,WSDL version 420,2013-03-12 12:13:00,
2013-03-12 05:18:00,45.7,43.0,29.91,SE,124,2.2,3.6,90,0.00,,,0.00,WSDL version 420,2013-03-12 12:18:00,
2013-03-12 05:23:00,45.4,42.7,29.91,SE,127,2.0,3.6,90,0.00,,,0.00,WSDL version 420,2013-03-12 12:23:00,
2013-03-12 05:28:00,45.3,42.6,29.91,ESE,113,0.8,2.7,90,0.00,,,0.00,WSDL version 420,2013-03-12 12:28:00,
2013-03-12 05:33:00,45.3,42.6,29.91,ESE,113,0.6,2.5,90,0.00,,,0.00,WSDL version 420,2013-03-12 12:33:00,
2013-03-12 05:38:00,45.2,42.5,29.91,SSE,150,0.0,2.7,90,0.00,,,0.00,WSDL version 420,2013-03-12 12:38:00,
2013-03-12 05:43:00,45.2,42.6,29.91,South,180,1.0,2.7,91,0.00,,,0.00,WSDL version 420,2013-03-12 12:43:00,
2013-03-12 05:48:00,45.4,43.2,29.91,South,180,0.1,2.2,92,0.00,,,0.00,WSDL version 420,2013-03-12 12:48:00,
2013-03-12 05:53:00,45.5,43.4,29.91,South,180,0.0,1.3,92,0.00,,,0.00,WSDL version 420,2013-03-12 12:53:00,
2013-03-12 05:58:00,45.7,43.6,29.91,South,180,0.0,0.0,92,0.00,,,0.00,WSDL version 420,2013-03-12 12:58:00,
2013-03-12 06:03:00,45.7,43.6,29.91,South,180,0.0,0.0,92,0.00,,,0.00,WSDL version 420,2013-03-12 13:03:00,
2013-03-12 06:08:00,45.7,43.6,29.91,South,180,0.0,0.0,92,0.00,,,0.00,WSDL version 420,2013-03-12 13:08:00,
2013-03-12 06:13:00,45.7,43.5,29.91,South,180,0.0,0.0,91,0.00,,,0.00,WSDL version 420,2013-03-12 13:13:00,
2013-03-12 06:18:00,45.7,43.2,29.91,SSE,163,1.0,2.2,91,0.00,,,0.00,WSDL version 420,2013-03-12 13:18:00,
2013-03-12 06:23:00,45.7,43.2,29.91,South,180,0.2,2.2,91,0.00,,,0.00,WSDL version 420,2013-03-12 13:23:00,
2013-03-12 06:28:00,45.9,43.7,29.91,South,185,0.0,1.6,92,0.00,,,0.00,WSDL version 420,2013-03-12 13:28:00,
2013-03-12 06:33:00,45.9,43.7,29.91,South,183,0.3,2.7,92,0.00,,,0.00,WSDL version 420,2013-03-12 13:33:00,
2013-03-12 06:38:00,46.0,43.9,29.91,SSW,210,0.3,2.7,92,0.00,,,0.00,WSDL version 420,2013-03-12 13:38:00,
2013-03-12 06:43:00,46.2,44.3,29.91,SSW,208,0.1,3.4,93,0.00,,,0.00,WSDL version 420,2013-03-12 13:43:00,
2013-03-12 06:48:00,46.4,44.6,29.91,South,183,0.6,3.4,93,0.00,,,0.00,WSDL version 420,2013-03-12 13:48:00,
2013-03-12 06:53:00,46.6,44.8,29.91,South,175,0.5,2.9,93,0.00,,,0.00,WSDL version 420,2013-03-12 13:53:00,
2013-03-12 06:58:00,46.8,45.0,29.91,ESE,115,1.5,2.9,94,0.00,,,0.00,WSDL version 420,2013-03-12 13:58:00,
2013-03-12 07:03:00,46.6,44.9,29.91,East,100,2.5,3.6,93,0.00,,,0.00,WSDL version 420,2013-03-12 14:03:00,
2013-03-12 07:08:00,46.2,44.1,29.91,East,90,1.8,3.6,92,0.00,,,0.00,WSDL version 420,2013-03-12 14:08:00,
2013-03-12 07:13:00,45.9,43.5,29.91,East,90,1.4,3.4,91,0.00,,,0.00,WSDL version 420,2013-03-12 14:13:00,
2013-03-12 07:18:00,45.8,43.3,29.91,East,90,2.0,2.7,90,0.00,,,0.00,WSDL version 420,2013-03-12 14:18:00,
2013-03-12 07:23:00,45.6,42.8,29.91,East,93,1.9,2.9,90,0.00,,,0.00,WSDL version 420,2013-03-12 14:23:00,
2013-03-12 07:28:00,45.4,42.3,29.91,East,90,0.0,2.9,89,0.00,,,0.00,WSDL version 420,2013-03-12 14:28:00,
2013-03-12 07:33:00,45.2,42.1,29.91,East,90,0.0,2.5,89,0.00,,,0.00,WSDL version 420,2013-03-12 14:33:00,
2013-03-12 07:38:00,45.1,42.1,29.91,East,90,0.8,2.9,89,0.00,,,0.00,WSDL version 420,2013-03-12 14:38:00,
2013-03-12 07:43:00,45.3,42.3,29.91,SSE,149,1.5,2.9,90,0.00,,,0.00,WSDL version 420,2013-03-12 14:43:00,
2013-03-12 07:48:00,45.5,42.8,29.91,South,180,0.3,2.5,91,0.00,,,0.00,WSDL version 420,2013-03-12 14:48:00,
2013-03-12 07:53:00,45.9,43.7,29.91,South,169,1.7,3.1,92,0.00,,,0.00,WSDL version 420,2013-03-12 14:53:00,
2013-03-12 07:58:00,46.3,44.5,29.91,SE,143,1.6,3.6,93,0.00,,,0.00,WSDL version 420,2013-03-12 14:58:00,
2013-03-12 08:03:00,46.4,44.9,29.91,ESE,110,0.6,3.6,94,0.00,,,0.00,WSDL version 420,2013-03-12 15:03:00,
2013-03-12 08:08:00,46.4,44.9,29.91,SE,135,1.2,2.2,94,0.00,,,0.00,WSDL version 420,2013-03-12 15:08:00,
2013-03-12 08:13:00,46.5,45.2,29.91,SE,140,0.0,2.2,96,0.00,,,0.00,WSDL version 420,2013-03-12 15:13:00,
2013-03-12 08:18:00,46.6,45.4,29.94,SE,129,0.6,1.6,96,0.00,,,0.00,WSDL version 420,2013-03-12 15:18:00,
2013-03-12 08:23:00,46.8,45.8,29.94,ESE,113,0.7,3.1,97,0.00,,,0.00,WSDL version 420,2013-03-12 15:23:00,
2013-03-12 08:28:00,46.9,45.8,29.94,ESE,118,2.6,3.6,96,0.00,,,0.00,WSDL version 420,2013-03-12 15:28:00,
2013-03-12 08:33:00,47.1,45.9,29.94,East,90,0.6,3.6,96,0.00,,,0.00,WSDL version 420,2013-03-12 15:33:00,
2013-03-12 08:38:00,47.4,46.2,29.94,East,90,0.0,3.1,96,0.00,,,0.00,WSDL version 420,2013-03-12 15:38:00,
2013-03-12 08:43:00,47.5,46.3,29.94,NW,315,0.0,1.3,96,0.00,,,0.00,WSDL version 420,2013-03-12 15:43:00,
2013-03-12 08:48:00,48.3,47.1,29.94,NW,315,0.0,1.3,96,0.00,,,0.00,WSDL version 420,2013-03-12 15:48:00,
2013-03-12 08:53:00,49.2,48.1,29.94,WNW,295,0.0,0.9,97,0.00,,,0.00,WSDL version 420,2013-03-12 15:53:00,
2013-03-12 08:58:00,51.0,50.2,29.94,SSE,168,0.0,2.7,98,0.00,,,0.00,WSDL version 420,2013-03-12 15:58:00,
2013-03-12 09:03:00,52.9,52.3,29.94,NNE,25,0.0,2.7,98,0.00,,,0.00,WSDL version 420,2013-03-12 16:03:00,
2013-03-12 09:08:00,53.4,52.6,29.94,NNW,335,0.6,2.7,96,0.00,,,0.00,WSDL version 420,2013-03-12 16:08:00,
2013-03-12 09:13:00,54.7,53.4,29.94,SW,228,0.0,2.9,94,0.00,,,0.00,WSDL version 420,2013-03-12 16:13:00,
2013-03-12 09:18:00,54.8,51.6,29.94,SW,225,0.0,2.9,84,0.00,,,0.00,WSDL version 420,2013-03-12 16:18:00,
2013-03-12 09:23:00,53.6,48.5,29.94,WNW,293,2.0,2.7,83,0.00,,,0.00,WSDL version 420,2013-03-12 16:23:00,
2013-03-12 09:28:00,52.3,46.7,29.94,WNW,290,2.3,3.1,80,0.00,,,0.00,WSDL version 420,2013-03-12 16:28:00,
2013-03-12 09:33:00,52.0,46.2,29.94,WNW,288,2.9,3.8,81,0.00,,,0.00,WSDL version 420,2013-03-12 16:33:00,
2013-03-12 09:38:00,52.4,47.0,29.94,WSW,253,2.1,3.8,82,0.00,,,0.00,WSDL version 420,2013-03-12 16:38:00,
2013-03-12 09:43:00,52.3,46.8,29.94,NW,305,2.1,3.6,81,0.00,,,0.00,WSDL version 420,2013-03-12 16:43:00,
2013-03-12 09:48:00,52.1,46.7,29.94,SW,220,0.5,3.4,82,0.00,,,0.00,WSDL version 420,2013-03-12 16:48:00,
2013-03-12 09:53:00,52.6,47.1,29.94,WNW,293,1.0,2.7,81,0.00,,,0.00,WSDL version 420,2013-03-12 16:53:00,
2013-03-12 09:58:00,53.4,48.1,29.94,WNW,293,0.0,2.7,82,0.00,,,0.00,WSDL version 420,2013-03-12 16:58:00,
2013-03-12 10:03:00,54.2,48.8,29.94,NNW,335,1.4,4.0,80,0.00,,,0.00,WSDL version 420,2013-03-12 17:03:00,
2013-03-12 10:08:00,54.0,47.6,29.94,NW,323,2.4,4.0,78,0.00,,,0.00,WSDL version 420,2013-03-12 17:08:00,
2013-03-12 10:13:00,53.9,46.9,29.94,NNW,335,3.0,4.0,77,0.00,,,0.00,WSDL version 420,2013-03-12 17:13:00,
2013-03-12 10:18:00,53.9,46.9,29.94,North,3,1.6,4.0,77,0.00,,,0.00,WSDL version 420,2013-03-12 17:18:00,
2013-03-12 10:23:00,54.5,47.8,29.94,NNW,348,1.2,4.0,78,0.00,,,0.00,WSDL version 420,2013-03-12 17:23:00,
2013-03-12 10:28:00,54.7,47.7,29.94,North,3,2.7,3.6,77,0.00,,,0.00,WSDL version 420,2013-03-12 17:28:00,
2013-03-12 10:33:00,55.4,48.4,29.97,North,358,0.2,3.6,77,0.00,,,0.00,WSDL version 420,2013-03-12 17:33:00,
2013-03-12 10:38:00,55.6,47.8,29.97,NNW,343,2.9,3.8,74,0.00,,,0.00,WSDL version 420,2013-03-12 17:38:00,
2013-03-12 10:43:00,55.0,46.9,29.97,NW,320,3.5,5.4,74,0.00,,,0.00,WSDL version 420,2013-03-12 17:43:00,
2013-03-12 10:48:00,55.1,47.4,29.94,NW,323,2.7,5.6,75,0.00,,,0.00,WSDL version 420,2013-03-12 17:48:00,
2013-03-12 10:53:00,54.7,47.0,29.94,NW,326,2.5,5.6,75,0.00,,,0.00,WSDL version 420,2013-03-12 17:53:00,
2013-03-12 10:58:00,55.0,47.2,29.94,North,8,3.3,4.3,75,0.00,,,0.00,WSDL version 420,2013-03-12 17:58:00,
2013-03-12 11:03:00,55.3,47.5,29.94,NNW,332,3.4,5.6,75,0.00,,,0.00,WSDL version 420,2013-03-12 18:03:00,
2013-03-12 11:13:00,55.2,47.3,29.94,North,352,3.5,5.8,75,0.00,,,0.00,WSDL version 420,2013-03-12 18:13:00,
2013-03-12 11:18:00,54.9,46.9,29.94,North,355,3.1,5.8,75,0.00,,,0.00,WSDL version 420,2013-03-12 18:18:00,
2013-03-12 11:23:00,55.5,47.6,29.94,WNW,293,3.0,5.4,75,0.00,,,0.00,WSDL version 420,2013-03-12 18:23:00,
2013-03-12 11:28:00,55.8,47.9,29.94,NW,320,2.7,4.3,75,0.00,,,0.00,WSDL version 420,2013-03-12 18:28:00,
2013-03-12 11:33:00,56.2,48.2,29.94,North,353,2.7,4.3,74,0.00,,,0.00,WSDL version 420,2013-03-12 18:33:00,
2013-03-12 11:38:00,56.6,48.4,29.94,NW,309,2.2,4.3,74,0.00,,,0.00,WSDL version 420,2013-03-12 18:38:00,
2013-03-12 11:43:00,56.7,48.3,29.94,NNW,330,3.2,5.4,73,0.00,,,0.00,WSDL version 420,2013-03-12 18:43:00,
2013-03-12 11:48:00,56.9,48.1,29.94,NNW,338,2.7,5.4,72,0.00,,,0.00,WSDL version 420,2013-03-12 18:48:00,
2013-03-12 11:53:00,57.5,48.4,29.94,North,358,2.2,4.9,72,0.00,,,0.00,WSDL version 420,2013-03-12 18:53:00,
2013-03-12 11:58:00,58.3,49.2,29.94,WNW,287,2.2,3.1,71,0.00,,,0.00,WSDL version 420,2013-03-12 18:58:00,
2013-03-12 12:03:00,59.0,49.0,29.94,NNW,338,3.0,4.3,68,0.00,,,0.00,WSDL version 420,2013-03-12 19:03:00,
2013-03-12 12:08:00,59.6,49.1,29.94,NW,325,2.9,4.3,67,0.00,,,0.00,WSDL version 420,2013-03-12 19:08:00,
2013-03-12 12:13:00,59.4,47.9,29.94,NNW,335,3.6,4.3,65,0.00,,,0.00,WSDL version 420,2013-03-12 19:13:00,
2013-03-12 12:18:00,59.3,47.7,29.91,North,353,3.3,4.9,65,0.00,,,0.00,WSDL version 420,2013-03-12 19:18:00,
2013-03-12 12:23:00,58.6,47.0,29.91,NNW,332,3.0,6.5,66,0.00,,,0.00,WSDL version 420,2013-03-12 19:23:00,
2013-03-12 12:28:00,58.6,47.5,29.91,NW,320,3.6,6.5,68,0.00,,,0.00,WSDL version 420,2013-03-12 19:28:00,
2013-03-12 12:33:00,59.3,48.2,29.91,NNW,335,2.9,5.4,66,0.00,,,0.00,WSDL version 420,2013-03-12 19:33:00,
2013-03-12 12:38:00,59.0,47.4,29.91,NNW,335,3.9,6.0,65,0.00,,,0.00,WSDL version 420,2013-03-12 19:38:00,
2013-03-12 12:43:00,59.2,47.8,29.91,NW,318,3.1,6.0,65,0.00,,,0.00,WSDL version 420,2013-03-12 19:43:00,
2013-03-12 12:48:00,59.2,47.6,29.91,West,281,2.6,4.5,67,0.00,,,0.00,WSDL version 420,2013-03-12 19:48:00,
2013-03-12 12:53:00,59.9,48.3,29.91,NNW,328,3.2,4.7,64,0.00,,,0.00,WSDL version 420,2013-03-12 19:53:00,
2013-03-12 12:58:00,59.9,47.8,29.91,NNW,329,3.1,5.6,65,0.00,,,0.00,WSDL version 420,2013-03-12 19:58:00,
2013-03-12 13:03:00,60.7,48.8,29.91,North,353,2.6,5.6,64,0.00,,,0.00,WSDL version 420,2013-03-12 20:03:00,
2013-03-12 13:08:00,61.1,48.6,29.91,NW,315,2.9,4.3,63,0.00,,,0.00,WSDL version 420,2013-03-12 20:08:00,
2013-03-12 13:13:00,61.6,48.0,29.91,NNW,338,3.2,5.6,59,0.00,,,0.00,WSDL version 420,2013-03-12 20:13:00,
2013-03-12 13:18:00,61.6,47.6,29.91,WNW,288,2.6,5.6,60,0.00,,,0.00,WSDL version 420,2013-03-12 20:18:00,
2013-03-12 13:23:00,62.2,47.5,29.91,NNW,332,2.9,5.4,58,0.00,,,0.00,WSDL version 420,2013-03-12 20:23:00,
2013-03-12 13:28:00,62.5,47.5,29.91,West,268,2.9,5.4,58,0.00,,,0.00,WSDL version 420,2013-03-12 20:28:00,
2013-03-12 13:33:00,63.0,47.9,29.91,NW,321,3.1,5.8,57,0.00,,,0.00,WSDL version 420,2013-03-12 20:33:00,
2013-03-12 13:43:00,63.5,47.6,29.91,NW,315,2.7,4.3,56,0.00,,,0.00,WSDL version 420,2013-03-12 20:43:00,
2013-03-12 13:48:00,63.4,47.2,29.91,West,270,1.9,4.9,56,0.00,,,0.00,WSDL version 420,2013-03-12 20:48:00,
2013-03-12 13:53:00,64.0,47.8,29.91,NNW,328,2.9,4.9,55,0.00,,,0.00,WSDL version 420,2013-03-12 20:53:00,
2013-03-12 13:58:00,64.8,47.9,29.91,NNW,343,2.7,3.8,53,0.00,,,0.00,WSDL version 420,2013-03-12 20:58:00,
2013-03-12 14:03:00,65.4,47.6,29.88,NNW,343,2.8,4.3,51,0.00,,,0.00,WSDL version 420,2013-03-12 21:03:00,
2013-03-12 14:08:00,65.5,47.1,29.88,NW,323,2.7,4.3,52,0.00,,,0.00,WSDL version 420,2013-03-12 21:08:00,
2013-03-12 14:13:00,66.3,47.2,29.88,NNW,340,3.0,4.0,50,0.00,,,0.00,WSDL version 420,2013-03-12 21:13:00,
2013-03-12 14:18:00,66.8,47.2,29.88,NNW,338,3.1,4.3,49,0.00,,,0.00,WSDL version 420,2013-03-12 21:18:00,
2013-03-12 14:23:00,67.0,46.9,29.88,North,353,3.0,4.3,48,0.00,,,0.00,WSDL version 420,2013-03-12 21:23:00,
2013-03-12 14:28:00,67.2,46.3,29.88,NW,310,3.6,4.7,46,0.00,,,0.00,WSDL version 420,2013-03-12 21:28:00,
2013-03-12 14:33:00,67.1,46.0,29.88,NW,321,2.8,4.7,46,0.00,,,0.00,WSDL version 420,2013-03-12 21:33:00,
2013-03-12 14:38:00,67.1,45.9,29.88,NW,310,2.9,4.3,47,0.00,,,0.00,WSDL version 420,2013-03-12 21:38:00,
2013-03-12 14:48:00,67.3,46.0,29.85,NW,325,2.8,5.6,46,0.00,,,0.00,WSDL version 420,2013-03-12 21:48:00,
2013-03-12 14:53:00,67.5,46.0,29.85,NNW,338,3.1,4.3,46,0.00,,,0.00,WSDL version 420,2013-03-12 21:53:00,
2013-03-12 14:58:00,68.2,46.5,29.85,North,350,3.5,4.5,46,0.00,,,0.00,WSDL version 420,2013-03-12 21:58:00,
2013-03-12 15:03:00,68.4,46.3,29.85,NNW,335,3.0,4.7,45,0.00,,,0.00,WSDL version 420,2013-03-12 22:03:00,
2013-03-12 15:08:00,68.5,46.5,29.85,WNW,298,2.6,5.4,46,0.00,,,0.00,WSDL version 420,2013-03-12 22:08:00,
2013-03-12 15:13:00,68.9,46.9,29.85,NW,308,2.7,5.4,45,0.00,,,0.00,WSDL version 420,2013-03-12 22:13:00,
2013-03-12 15:18:00,69.2,47.0,29.85,NW,323,2.7,4.7,45,0.00,,,0.00,WSDL version 420,2013-03-12 22:18:00,
2013-03-12 15:23:00,69.4,46.8,29.85,NW,313,2.5,4.7,44,0.00,,,0.00,WSDL version 420,2013-03-12 22:23:00,
2013-03-12 15:28:00,69.5,46.6,29.85,NNW,343,3.4,4.9,44,0.00,,,0.00,WSDL version 420,2013-03-12 22:28:00,
2013-03-12 15:33:00,69.7,46.3,29.85,North,8,3.2,4.9,43,0.00,,,0.00,WSDL version 420,2013-03-12 22:33:00,
2013-03-12 15:38:00,69.7,46.2,29.85,NNW,335,3.0,4.3,43,0.00,,,0.00,WSDL version 420,2013-03-12 22:38:00,
2013-03-12 15:43:00,70.4,46.8,29.85,NW,315,2.5,4.3,43,0.00,,,0.00,WSDL version 420,2013-03-12 22:43:00,
2013-03-12 15:48:00,70.7,47.0,29.85,NW,325,2.8,3.8,42,0.00,,,0.00,WSDL version 420,2013-03-12 22:48:00,
2013-03-12 15:53:00,70.9,47.3,29.85,NNW,346,2.5,3.6,43,0.00,,,0.00,WSDL version 420,2013-03-12 22:53:00,
2013-03-12 15:58:00,71.4,47.1,29.85,NNW,340,3.1,4.3,42,0.00,,,0.00,WSDL version 420,2013-03-12 22:58:00,
2013-03-12 16:03:00,71.5,46.9,29.85,NNW,335,3.7,5.8,41,0.00,,,0.00,WSDL version 420,2013-03-12 23:03:00,
2013-03-12 16:08:00,71.8,46.8,29.85,NW,318,2.7,5.8,41,0.00,,,0.00,WSDL version 420,2013-03-12 23:08:00,
2013-03-12 16:13:00,71.7,46.5,29.85,NNW,328,3.1,5.8,40,0.00,,,0.00,WSDL version 420,2013-03-12 23:13:00,
2013-03-12 16:18:00,71.5,46.1,29.85,North,360,3.3,5.8,40,0.00,,,0.00,WSDL version 420,2013-03-12 23:18:00,
2013-03-12 16:23:00,71.7,46.2,29.85,North,353,3.4,4.9,40,0.00,,,0.00,WSDL version 420,2013-03-12 23:23:00,
2013-03-12 16:28:00,71.3,45.4,29.85,NNW,344,2.9,4.9,40,0.00,,,0.00,WSDL version 420,2013-03-12 23:28:00,
2013-03-12 16:33:00,71.0,44.8,29.85,NNW,345,3.2,4.9,39,0.00,,,0.00,WSDL version 420,2013-03-12 23:33:00,
2013-03-12 16:38:00,71.0,45.3,29.85,NNW,346,1.9,4.5,40,0.00,,,0.00,WSDL version 420,2013-03-12 23:38:00,
2013-03-12 16:48:00,71.3,46.1,29.85,West,264,2.0,4.7,41,0.00,,,0.00,WSDL version 420,2013-03-12 23:48:00,
2013-03-12 16:53:00,71.4,46.2,29.85,WSW,256,2.7,5.4,41,0.00,,,0.00,WSDL version 420,2013-03-12 23:53:00,
2013-03-12 17:00:00,71.6,45.9,29.85,WSW,250,2.5,5.4,40,0.00,,,0.00,WSDL version 420,2013-03-13 00:00:00,
2013-03-12 17:05:00,71.7,46.1,29.85,WNW,287,1.8,5.4,40,0.00,,,0.00,WSDL version 420,2013-03-13 00:05:00,
2013-03-12 17:10:00,71.6,45.9,29.85,West,275,2.3,4.7,40,0.00,,,0.00,WSDL version 420,2013-03-13 00:10:00,
2013-03-12 17:15:00,71.6,45.8,29.85,SW,220,2.7,4.7,40,0.00,,,0.00,WSDL version 420,2013-03-13 00:15:00,
2013-03-12 17:20:00,71.6,45.5,29.85,WSW,242,1.2,3.8,39,0.00,,,0.00,WSDL version 420,2013-03-13 00:20:00,
2013-03-12 17:25:00,71.3,45.7,29.85,West,263,1.7,3.6,40,0.00,,,0.00,WSDL version 420,2013-03-13 00:25:00,
2013-03-12 17:30:00,71.2,45.7,29.85,SW,228,1.6,3.4,40,0.00,,,0.00,WSDL version 420,2013-03-13 00:30:00,
2013-03-12 17:35:00,71.0,45.5,29.85,West,275,0.3,3.4,40,0.00,,,0.00,WSDL version 420,2013-03-13 00:35:00,
2013-03-12 17:40:00,70.9,45.4,29.85,SSW,211,2.3,4.0,40,0.00,,,0.00,WSDL version 420,2013-03-13 00:40:00,
2013-03-12 17:45:00,70.7,45.3,29.85,SSW,210,2.4,4.0,40,0.00,,,0.00,WSDL version 420,2013-03-13 00:45:00,
2013-03-12 17:50:00,70.6,45.5,29.85,WSW,253,1.4,3.6,41,0.00,,,0.00,WSDL version 420,2013-03-13 00:50:00,
2013-03-12 17:55:00,70.2,45.1,29.85,WNW,298,1.8,3.1,40,0.00,,,0.00,WSDL version 420,2013-03-13 00:55:00,
2013-03-12 18:00:00,69.7,44.8,29.85,SW,225,1.5,4.7,41,0.00,,,0.00,WSDL version 420,2013-03-13 01:00:00,
2013-03-12 18:05:00,69.4,44.7,29.85,SW,219,2.6,4.7,41,0.00,,,0.00,WSDL version 420,2013-03-13 01:05:00,
2013-03-12 18:10:00,69.1,45.1,29.85,WNW,283,1.5,4.3,42,0.00,,,0.00,WSDL version 420,2013-03-13 01:10:00,
2013-03-12 18:18:00,68.4,44.4,29.85,WNW,290,2.1,3.6,42,0.00,,,0.00,WSDL version 420,2013-03-13 01:18:00,
2013-03-12 18:23:00,67.7,44.3,29.85,WNW,290,3.4,4.9,43,0.00,,,0.00,WSDL version 420,2013-03-13 01:23:00,
2013-03-12 18:28:00,67.2,44.3,29.85,NW,310,2.9,4.9,44,0.00,,,0.00,WSDL version 420,2013-03-13 01:28:00,
2013-03-12 18:33:00,67.0,44.3,29.85,WNW,295,2.3,4.7,44,0.00,,,0.00,WSDL version 420,2013-03-13 01:33:00,
2013-03-12 18:38:00,66.8,44.4,29.85,West,268,0.9,3.8,45,0.00,,,0.00,WSDL version 420,2013-03-13 01:38:00,
2013-03-12 18:43:00,66.5,44.5,29.85,WNW,301,2.3,3.8,45,0.00,,,0.00,WSDL version 420,2013-03-13 01:43:00,
2013-03-12 18:48:00,66.1,44.5,29.85,NW,305,1.8,2.9,46,0.00,,,0.00,WSDL version 420,2013-03-13 01:48:00,
2013-03-12 18:58:00,65.7,45.0,29.85,WNW,290,1.8,2.9,47,0.00,,,0.00,WSDL version 420,2013-03-13 01:58:00,
2013-03-12 19:03:00,65.3,44.9,29.85,West,280,0.5,2.9,48,0.00,,,0.00,WSDL version 420,2013-03-13 02:03:00,
2013-03-12 19:08:00,64.9,44.9,29.85,NW,315,1.1,2.5,49,0.00,,,0.00,WSDL version 420,2013-03-13 02:08:00,
2013-03-12 19:13:00,64.7,45.1,29.85,NW,315,0.4,2.5,49,0.00,,,0.00,WSDL version 420,2013-03-13 02:13:00,
2013-03-12 19:18:00,64.4,45.4,29.85,NW,304,2.3,3.6,51,0.00,,,0.00,WSDL version 420,2013-03-13 02:18:00,
2013-03-12 19:23:00,64.2,45.7,29.85,WNW,288,1.0,3.6,51,0.00,,,0.00,WSDL version 420,2013-03-13 02:23:00,
2013-03-12 19:28:00,64.0,45.7,29.85,NW,315,1.2,2.9,52,0.00,,,0.00,WSDL version 420,2013-03-13 02:28:00,
2013-03-12 19:33:00,63.8,45.9,29.85,NW,315,0.0,2.9,52,0.00,,,0.00,WSDL version 420,2013-03-13 02:33:00,
2013-03-12 19:38:00,63.5,45.8,29.85,WNW,293,0.9,2.2,53,0.00,,,0.00,WSDL version 420,2013-03-13 02:38:00,
2013-03-12 19:43:00,63.4,45.9,29.85,WNW,293,0.0,2.2,53,0.00,,,0.00,WSDL version 420,2013-03-13 02:43:00,
2013-03-12 19:53:00,63.1,46.2,29.88,WNW,293,0.0,0.0,54,0.00,,,0.00,WSDL version 420,2013-03-13 02:53:00,
2013-03-12 20:03:00,62.8,46.5,29.88,ESE,108,0.0,2.0,55,0.00,,,0.00,WSDL version 420,2013-03-13 03:03:00,
2013-03-12 20:08:00,62.6,46.4,29.88,East,90,0.0,2.0,55,0.00,,,0.00,WSDL version 420,2013-03-13 03:08:00,
2013-03-12 20:18:00,62.2,46.7,29.88,East,90,0.0,0.0,57,0.00,,,0.00,WSDL version 420,2013-03-13 03:18:00,
2013-03-12 20:23:00,62.1,46.8,29.88,ESE,113,0.5,2.0,58,0.00,,,0.00,WSDL version 420,2013-03-13 03:23:00,
2013-03-12 20:28:00,62.0,46.8,29.88,SE,135,0.3,2.0,57,0.00,,,0.00,WSDL version 420,2013-03-13 03:28:00,
2013-03-12 20:33:00,61.7,46.8,29.88,SE,135,0.8,1.6,58,0.00,,,0.00,WSDL version 420,2013-03-13 03:33:00,
2013-03-12 20:38:00,61.7,47.0,29.88,SE,135,0.0,1.6,59,0.00,,,0.00,WSDL version 420,2013-03-13 03:38:00,
2013-03-12 20:43:00,61.6,47.2,29.88,SE,135,0.0,0.0,59,0.00,,,0.00,WSDL version 420,2013-03-13 03:43:00,
2013-03-12 20:48:00,61.3,46.9,29.88,SE,135,0.0,0.0,59,0.00,,,0.00,WSDL version 420,2013-03-13 03:48:00,
2013-03-12 20:53:00,61.1,47.1,29.88,SE,127,0.0,0.0,59,0.00,,,0.00,WSDL version 420,2013-03-13 03:53:00,
2013-03-12 21:01:00,60.8,47.1,29.88,East,100,0.0,2.2,61,0.00,,,0.00,WSDL version 420,2013-03-13 04:01:00,
2013-03-12 21:06:00,60.1,46.9,29.88,NNW,328,2.1,3.1,63,0.00,,,0.00,WSDL version 420,2013-03-13 04:06:00,
2013-03-12 21:13:00,58.9,46.9,29.88,NNW,343,2.7,4.3,65,0.00,,,0.00,WSDL version 420,2013-03-13 04:13:00,
2013-03-12 21:18:00,58.4,46.7,29.88,NNW,346,1.2,4.3,65,0.00,,,0.00,WSDL version 420,2013-03-13 04:18:00,
2013-03-12 21:23:00,58.1,46.4,29.88,NNW,343,0.0,2.2,65,0.00,,,0.00,WSDL version 420,2013-03-13 04:23:00,
2013-03-12 21:28:00,57.7,46.4,29.88,NNE,13,1.9,3.1,67,0.00,,,0.00,WSDL version 420,2013-03-13 04:28:00,
2013-03-12 21:33:00,57.3,46.6,29.88,NNE,23,0.6,3.1,68,0.00,,,0.00,WSDL version 420,2013-03-13 04:33:00,
2013-03-12 21:38:00,57.2,46.8,29.88,ENE,68,0.0,2.2,68,0.00,,,0.00,WSDL version 420,2013-03-13 04:38:00,
2013-03-12 21:48:00,57.0,46.9,29.88,East,90,0.9,2.2,69,0.00,,,0.00,WSDL version 420,2013-03-13 04:48:00,
2013-03-12 21:53:00,56.8,46.8,29.88,East,83,1.5,2.7,69,0.00,,,0.00,WSDL version 420,2013-03-13 04:53:00,
2013-03-12 21:58:00,56.7,46.8,29.88,East,84,2.6,4.0,70,0.00,,,0.00,WSDL version 420,2013-03-13 04:58:00,
2013-03-12 22:03:00,56.5,46.9,29.88,East,93,1.0,4.0,70,0.00,,,0.00,WSDL version 420,2013-03-13 05:03:00,
2013-03-12 22:08:00,56.4,46.9,29.88,ESE,105,1.3,2.9,71,0.00,,,0.00,WSDL version 420,2013-03-13 05:08:00,
2013-03-12 22:13:00,56.2,46.8,29.88,ESE,107,2.0,2.9,71,0.00,,,0.00,WSDL version 420,2013-03-13 05:13:00,
2013-03-12 22:18:00,56.0,46.6,29.91,East,98,2.1,3.6,71,0.00,,,0.00,WSDL version 420,2013-03-13 05:18:00,
2013-03-12 22:23:00,55.9,46.7,29.91,East,96,2.9,4.9,72,0.00,,,0.00,WSDL version 420,2013-03-13 05:23:00,
2013-03-12 22:28:00,55.7,46.7,29.91,ESE,110,3.3,4.9,72,0.00,,,0.00,WSDL version 420,2013-03-13 05:28:00,
2013-03-12 22:33:00,55.5,46.6,29.88,ESE,121,1.5,4.0,72,0.00,,,0.00,WSDL version 420,2013-03-13 05:33:00,
2013-03-12 22:38:00,55.4,46.8,29.88,East,90,0.0,3.1,73,0.00,,,0.00,WSDL version 420,2013-03-13 05:38:00,
2013-03-12 22:43:00,55.2,46.7,29.88,East,90,0.0,1.6,73,0.00,,,0.00,WSDL version 420,2013-03-13 05:43:00,
2013-03-12 22:48:00,54.9,46.8,29.91,East,90,0.0,0.0,74,0.00,,,0.00,WSDL version 420,2013-03-13 05:48:00,
2013-03-12 22:53:00,54.9,46.7,29.91,SSE,158,0.0,0.0,74,0.00,,,0.00,WSDL version 420,2013-03-13 05:53:00,
2013-03-12 22:58:00,54.7,46.7,29.91,SSE,158,0.0,0.0,74,0.00,,,0.00,WSDL version 420,2013-03-13 05:58:00,
2013-03-12 23:03:00,54.6,46.5,29.91,South,180,0.3,1.6,74,0.00,,,0.00,WSDL version 420,2013-03-13 06:03:00,
2013-03-12 23:08:00,54.4,46.2,29.91,South,180,1.1,2.9,73,0.00,,,0.00,WSDL version 420,2013-03-13 06:08:00,
2013-03-12 23:13:00,54.1,45.9,29.91,SSE,168,1.9,3.6,74,0.00,,,0.00,WSDL version 420,2013-03-13 06:13:00,
2013-03-12 23:18:00,54.0,46.2,29.91,SSW,200,0.0,3.6,75,0.00,,,0.00,WSDL version 420,2013-03-13 06:18:00,
2013-03-12 23:23:00,54.0,46.2,29.91,SSW,203,0.9,2.2,74,0.00,,,0.00,WSDL version 420,2013-03-13 06:23:00,
2013-03-12 23:28:00,53.8,45.9,29.91,SSW,203,1.8,2.9,75,0.00,,,0.00,WSDL version 420,2013-03-13 06:28:00,
2013-03-12 23:33:00,53.7,45.9,29.91,SSW,203,1.9,2.9,75,0.00,,,0.00,WSDL version 420,2013-03-13 06:33:00,
2013-03-12 23:38:00,53.5,46.1,29.91,SSW,203,0.0,2.7,76,0.00,,,0.00,WSDL version 420,2013-03-13 06:38:00,
2013-03-12 23:43:00,53.4,46.1,29.91,SSW,203,0.0,1.3,76,0.00,,,0.00,WSDL version 420,2013-03-13 06:43:00,
2013-03-12 23:48:00,53.4,46.0,29.91,SSW,203,0.0,0.0,76,0.00,,,0.00,WSDL version 420,2013-03-13 06:48:00,
2013-03-12 23:53:00,53.2,45.9,29.91,SSW,203,0.0,0.0,76,0.00,,,0.00,WSDL version 420,2013-03-13 06:53:00,
2013-03-12 23:58:00,53.2,46.1,29.91,SSW,203,0.0,0.0,76,0.00,,,0.00,WSDL version 420,2013-03-13 06:58:00,